This is the latest recevied weather packets stored in our database for station/object N9WHM. If no packets are shown the sender has not sent any weather packets the latest 10 day(s).
| Time | Temp. | Humidity | Pressure | Rain* | Wind** | Luminosity | Snow |
|---|---|---|---|---|---|---|---|
| 1778266595 | 24.44° C | 24% | 1006.6 hPa | 0 mm | - | 302 W/m² | - |
| 1778266292 | 24.44° C | 25% | 1006.5 hPa | 0 mm | - | 316 W/m² | - |
| 1778265989 | 23.89° C | 25% | 1006.5 hPa | 0 mm | - | 437 W/m² | - |
| 1778265686 | 23.89° C | 25% | 1006.5 hPa | 0 mm | - | 339 W/m² | - |
| 1778265383 | 23.89° C | 25% | 1006.7 hPa | 0 mm | - | 302 W/m² | - |
| 1778265079 | 23.89° C | 25% | 1006.7 hPa | 0 mm | - | 350 W/m² | - |
| 1778264775 | 23.33° C | 26% | 1006.8 hPa | 0 mm | - | 263 W/m² | - |
| 1778264473 | 24.44° C | 25% | 1007 hPa | 0 mm | - | 242 W/m² | - |
| 1778264172 | 24.44° C | 25% | 1007 hPa | 0 mm | - | 292 W/m² | - |
| 1778263871 | 23.89° C | 25% | 1006.8 hPa | 0 mm | - | 421 W/m² | - |
| 1778263567 | 24.44° C | 26% | 1006.9 hPa | 0 mm | - | 278 W/m² | - |
| 1778263263 | 23.33° C | 26% | 1007 hPa | 0 mm | - | 921 W/m² | - |
| 1778262960 | 23.33° C | 27% | 1007 hPa | 0 mm | - | 166 W/m² | - |
| 1778262658 | 23.33° C | 26% | 1007.1 hPa | 0 mm | - | 810 W/m² | - |
| 1778262355 | 23.89° C | 25% | 1007.4 hPa | 0 mm | - | 776 W/m² | - |
| 1778262052 | 23.89° C | 26% | 1007.3 hPa | 0 mm | - | 532 W/m² | - |
| 1778261749 | 24.44° C | 28% | 1007.3 hPa | 0 mm | - | 779 W/m² | - |
| 1778261444 | 23.33° C | 25% | 1007.4 hPa | 0 mm | - | 745 W/m² | - |
| 1778261142 | 23.33° C | 26% | 1007.5 hPa | 0 mm | - | 733 W/m² | - |
| 1778260839 | 23.33° C | 25% | 1007.4 hPa | 0 mm | - | 728 W/m² | - |
| 1778260535 | 22.78° C | 26% | 1007.5 hPa | 0 mm | - | 722 W/m² | - |
| 1778260231 | 22.78° C | 25% | 1007.6 hPa | 0 mm | - | 717 W/m² | - |
| 1778259929 | 22.78° C | 26% | 1007.7 hPa | 0 mm | - | 711 W/m² | - |
| 1778259626 | 22.78° C | 27% | 1007.8 hPa | 0 mm | - | 709 W/m² | - |
| 1778259323 | 22.78° C | 27% | 1007.8 hPa | 0 mm | - | 693 W/m² | - |
* Rain latest hour (hover to see other rain measurements)
** Current wind speed in m/s (hover to see current wind gust speed)